When you browse on this site, cookies collect data to enhance your experience and personalize the content and advertising you see.
Visit our Privacy Policy to learn more. By continuing to use the site, you agree to this use of cookies and data.
  • In France
  • List of Countries
  • For 7 days
  • Water Temperature
  • Satellite Maps
  • Weather Map
  • Weather Widgets
  • user-avatar
    Login

    Hourly Weather Solden

    Today, 17 June, Monday

    Time Temperature Precipitation Wind Pressure Humidity
    00:00 +4°C° 0 mm 2 mps 585 mmHg 88%
    01:00 +5°C° 0 mm 1 mps 585 mmHg 88%
    02:00 +5°C° 0 mm 1 mps 585 mmHg 88%
    03:00 +5°C° 0 mm 1 mps 584 mmHg 88%
    04:00 +5°C° 0 mm 1 mps 584 mmHg 88%
    05:00 +6°C° 0 mm 1 mps 585 mmHg 84%
    06:00 +8°C° 0 mm 1 mps 586 mmHg 80%
    07:00 +10°C° 0 mm 1 mps 587 mmHg 74%
    08:00 +12°C° 0 mm 1 mps 588 mmHg 68%
    09:00 +13°C° 0 mm 1 mps 588 mmHg 61%
    10:00 +15°C° 0 mm 1 mps 589 mmHg 55%
    11:00 +16°C° 0.2 mm 1 mps 589 mmHg 53%
    12:00 +16°C° 0.2 mm 2 mps 589 mmHg 51%
    13:00 +16°C° 0.2 mm 2 mps 589 mmHg 49%
    14:00 +16°C° 0.6 mm 2 mps 589 mmHg 53%
    15:00 +16°C° 0.6 mm 2 mps 588 mmHg 56%
    16:00 +15°C° 0.6 mm 2 mps 588 mmHg 59%
    17:00 +14°C° 0.6 mm 1 mps 587 mmHg 66%
    18:00 +13°C° 0.6 mm 1 mps 587 mmHg 74%
    19:00 +12°C° 0.6 mm 1 mps 587 mmHg 81%
    20:00 +11°C° 0.8 mm 1 mps 586 mmHg 83%
    21:00 +9°C° 0.8 mm 1 mps 586 mmHg 86%
    22:00 +8°C° 0.8 mm 1 mps 585 mmHg 88%
    23:00 +8°C° 0.2 mm 1 mps 585 mmHg 89%

    Tomorrow, 18 June, Tuesday

    Time Temperature Precipitation Wind Pressure Humidity
    00:00 +6°C° 0.2 mm 0 mps 585 mmHg 90%
    01:00 +5°C° 0.2 mm 0 mps 585 mmHg 90%
    02:00 +5°C° 0 mm 0 mps 584 mmHg 91%
    03:00 +5°C° 0 mm 0 mps 584 mmHg 91%
    04:00 +4°C° 0 mm 0 mps 583 mmHg 91%
    05:00 +6°C° 0 mm 0 mps 584 mmHg 87%
    06:00 +8°C° 0 mm 0 mps 585 mmHg 83%
    07:00 +10°C° 0 mm 0 mps 586 mmHg 79%
    08:00 +12°C° 0.3 mm 1 mps 587 mmHg 74%
    09:00 +13°C° 0.3 mm 1 mps 587 mmHg 69%
    10:00 +15°C° 0.3 mm 2 mps 588 mmHg 64%
    11:00 +15°C° 1.2 mm 2 mps 588 mmHg 64%
    12:00 +16°C° 1.2 mm 2 mps 588 mmHg 64%
    13:00 +16°C° 1.2 mm 2 mps 588 mmHg 64%
    14:00 +16°C° 1.3 mm 2 mps 587 mmHg 68%
    15:00 +15°C° 1.3 mm 2 mps 587 mmHg 72%
    16:00 +15°C° 1.3 mm 1 mps 587 mmHg 76%
    17:00 +14°C° 1.4 mm 1 mps 586 mmHg 80%
    18:00 +13°C° 1.4 mm 1 mps 586 mmHg 84%
    19:00 +11°C° 1.4 mm 0 mps 586 mmHg 88%
    20:00 +11°C° 1 mm 1 mps 585 mmHg 88%
    21:00 +9°C° 1 mm 1 mps 585 mmHg 89%
    22:00 +8°C° 1 mm 1 mps 584 mmHg 90%
    23:00 +8°C° 0.2 mm 1 mps 584 mmHg 90%

    Day after tomorrow, 19 June, Wednesday

    Time Temperature Precipitation Wind Pressure Humidity
    00:00 +7°C° 0.2 mm 1 mps 584 mmHg 89%
    01:00 +7°C° 0.2 mm 1 mps 583 mmHg 89%
    02:00 +7°C° 0 mm 1 mps 583 mmHg 89%
    03:00 +7°C° 0 mm 1 mps 583 mmHg 89%
    04:00 +6°C° 0 mm 1 mps 582 mmHg 89%
    05:00 +7°C° 0 mm 0 mps 583 mmHg 86%
    06:00 +8°C° 0 mm 0 mps 584 mmHg 84%
    07:00 +9°C° 0 mm 0 mps 585 mmHg 82%
    08:00 +10°C° 0.5 mm 0 mps 585 mmHg 79%
    09:00 +12°C° 0.5 mm 1 mps 585 mmHg 75%
    10:00 +13°C° 0.5 mm 1 mps 586 mmHg 72%
    11:00 +14°C° 1.1 mm 1 mps 586 mmHg 71%
    12:00 +15°C° 1.1 mm 1 mps 586 mmHg 70%
    13:00 +15°C° 1.1 mm 1 mps 586 mmHg 69%
    14:00 +15°C° 1.1 mm 1 mps 586 mmHg 69%
    15:00 +15°C° 1.2 mm 1 mps 586 mmHg 69%
    16:00 +13°C° 1.2 mm 0 mps 585 mmHg 69%
    17:00 +13°C° 0.4 mm 1 mps 585 mmHg 72%
    18:00 +12°C° 0.4 mm 1 mps 585 mmHg 76%
    19:00 +12°C° 0.4 mm 1 mps 585 mmHg 80%
    20:00 +10°C° 0.1 mm 1 mps 584 mmHg 80%
    21:00 +9°C° 0.1 mm 1 mps 584 mmHg 80%
    22:00 +8°C° 0.1 mm 1 mps 583 mmHg 80%
    23:00 +7°C° 0 mm 1 mps 583 mmHg 80%

    20 June, Thursday

    Time Temperature Precipitation Wind Pressure Humidity
    00:00 +7°C° 0 mm 1 mps 583 mmHg 80%
    01:00 +6°C° 0 mm 1 mps 582 mmHg 79%
    02:00 +6°C° 0 mm 1 mps 582 mmHg 78%
    03:00 +6°C° 0 mm 1 mps 582 mmHg 78%
    04:00 +6°C° 0 mm 1 mps 582 mmHg 77%
    05:00 +8°C° 0 mm 1 mps 583 mmHg 73%
    06:00 +8°C° 0 mm 0 mps 584 mmHg 69%
    07:00 +10°C° 0 mm 0 mps 585 mmHg 65%
    08:00 +13°C° 0 mm 1 mps 585 mmHg 60%
    09:00 +14°C° 0 mm 1 mps 586 mmHg 55%
    10:00 +16°C° 0 mm 2 mps 587 mmHg 50%
    11:00 +16°C° 0.2 mm 2 mps 586 mmHg 51%
    12:00 +16°C° 0.2 mm 2 mps 586 mmHg 52%
    13:00 +17°C° 0.2 mm 2 mps 586 mmHg 53%
    14:00 +16°C° 0.8 mm 2 mps 586 mmHg 58%
    15:00 +16°C° 0.8 mm 2 mps 586 mmHg 64%
    16:00 +15°C° 0.8 mm 2 mps 585 mmHg 70%
    17:00 +14°C° 0.6 mm 2 mps 585 mmHg 76%
    18:00 +13°C° 0.6 mm 1 mps 585 mmHg 82%
    19:00 +12°C° 0.6 mm 1 mps 585 mmHg 88%
    20:00 +11°C° 0.4 mm 1 mps 585 mmHg 89%
    21:00 +10°C° 0.4 mm 1 mps 584 mmHg 90%
    22:00 +8°C° 0.4 mm 1 mps 584 mmHg 91%
    23:00 +8°C° 0.1 mm 1 mps 584 mmHg 91%

    21 June, Friday

    Time Temperature Precipitation Wind Pressure Humidity
    00:00 +8°C° 0.1 mm 1 mps 584 mmHg 91%
    01:00 +7°C° 0.1 mm 1 mps 583 mmHg 91%
    02:00 +7°C° 0 mm 1 mps 583 mmHg 91%
    03:00 +7°C° 0 mm 1 mps 583 mmHg 91%
    04:00 +6°C° 0 mm 1 mps 583 mmHg 91%
    05:00 +8°C° 0 mm 1 mps 584 mmHg 87%
    06:00 +8°C° 0 mm 0 mps 585 mmHg 84%
    07:00 +10°C° 0 mm 0 mps 586 mmHg 81%
    08:00 +11°C° 0.4 mm 0 mps 586 mmHg 77%
    09:00 +13°C° 0.4 mm 1 mps 587 mmHg 74%
    10:00 +15°C° 0.4 mm 1 mps 587 mmHg 70%
    11:00 +15°C° 0.8 mm 1 mps 587 mmHg 68%
    12:00 +16°C° 0.8 mm 2 mps 587 mmHg 65%
    13:00 +16°C° 0.8 mm 2 mps 587 mmHg 63%
    14:00 +15°C° 1.2 mm 2 mps 587 mmHg 68%
    15:00 +15°C° 1.2 mm 2 mps 587 mmHg 73%
    16:00 +14°C° 1.2 mm 2 mps 586 mmHg 78%
    17:00 +14°C° 1.1 mm 1 mps 586 mmHg 83%
    18:00 +13°C° 1.1 mm 1 mps 586 mmHg 87%
    19:00 +12°C° 1.1 mm 1 mps 586 mmHg 91%
    20:00 +10°C° 0.5 mm 1 mps 585 mmHg 92%
    21:00 +9°C° 0.5 mm 1 mps 585 mmHg 93%
    22:00 +8°C° 0.5 mm 1 mps 584 mmHg 95%
    23:00 +7°C° 0.1 mm 1 mps 584 mmHg 94%

    22 June, Saturday

    Time Temperature Precipitation Wind Pressure Humidity
    00:00 +7°C° 0.1 mm 1 mps 584 mmHg 94%
    01:00 +7°C° 0.1 mm 1 mps 584 mmHg 94%
    02:00 +6°C° 0.1 mm 1 mps 583 mmHg 94%
    03:00 +6°C° 0.1 mm 1 mps 583 mmHg 95%
    04:00 +6°C° 0.1 mm 1 mps 583 mmHg 95%
    05:00 +7°C° 0.1 mm 1 mps 583 mmHg 94%
    06:00 +8°C° 0.1 mm 1 mps 584 mmHg 94%
    07:00 +9°C° 0.1 mm 1 mps 584 mmHg 93%
    08:00 +10°C° 0.8 mm 1 mps 584 mmHg 90%
    09:00 +11°C° 0.8 mm 1 mps 585 mmHg 87%
    10:00 +12°C° 0.8 mm 1 mps 585 mmHg 84%
    11:00 +12°C° 1.6 mm 2 mps 585 mmHg 84%
    12:00 +12°C° 1.6 mm 2 mps 585 mmHg 84%
    13:00 +12°C° 1.6 mm 2 mps 585 mmHg 85%
    14:00 +12°C° 1.4 mm 2 mps 585 mmHg 85%
    15:00 +12°C° 1.4 mm 2 mps 585 mmHg 86%
    16:00 +12°C° 1.4 mm 1 mps 585 mmHg 86%
    17:00 +12°C° 1 mm 1 mps 584 mmHg 88%
    18:00 +11°C° 1 mm 1 mps 584 mmHg 91%
    19:00 +9°C° 1 mm 0 mps 584 mmHg 93%
    20:00 +8°C° 0.3 mm 0 mps 584 mmHg 94%
    21:00 +7°C° 0.3 mm 0 mps 584 mmHg 94%
    22:00 +6°C° 0.3 mm 0 mps 583 mmHg 95%
    23:00 +7°C° 0.2 mm 1 mps 583 mmHg 95%
    Show more